Location: Pianadetto
(44.4000°N, 10.1000°E)
Time: 21:16:17
(UTC+00:00)

Cosmos 1455 - Pass Details

Date: 26 May 2022
Orbit: 492 x 514 km, 82.5° (Epoch: 02 July)

Event Time Altitude Azimuth Distance (km) Brightness Sun altitude
Rises 00:48:00 0° 360° (N) 2,585 6.9 -21.3°
Reaches altitude 10° 00:50:16 10° 10° (N) 1,697 5.9 -21.1°
Maximum altitude 00:53:41 34° 76° (ENE) 837 3.5 -20.8°
Enters shadow 00:55:15 23° 122° (ESE) 1,080 3.7 -20.7°
